This demonstration page uses our WeatherBlox Daily Observations layout. Learn more.

Hourly Observations for August 14, 2019

Temp ( °F °C ) Dew Point ( °F °C ) Humidity (%) Winds ( mph kmh ) Pressure ( in mb ) Visibility ( mi km ) Precip ( " mm )
12:15 am 00:15 Clear 62 16.8 62 16.5 98 98 NW 3 6 30.12 1020 10 16.09344 0 0
12:35 am 00:35 Clear 62 16.4 61 16.1 98 98 NW 6 9 30.12 1020 10 16.09344 0 0
12:55 am 00:55 Clear 61 16.2 61 16.1 99 99 NW 5 7 30.12 1020 10 16.09344 0 0
1:15 am 01:15 Clear 61 16.1 61 16 99 99 WSW 5 7 30.12 1020 10 16.09344 0 0
1:35 am 01:35 Clear 61 16 61 15.9 99 99 W 5 7 30.12 1020 10 16.09344 0 0
1:55 am 01:55 Clear 61 16 60 15.8 99 99 WNW 6 9 30.12 1020 10 16.09344 0 0
2:15 am 02:15 Clear 61 16 60 15.8 99 99 WNW 5 7 30.15 1021 10 16.09344 0 0
2:35 am 02:35 Clear 60 15.5 60 15.5 100 100 NW 7 11 30.15 1021 10 16.09344 0 0
2:55 am 02:55 Clear 60 15.8 60 15.7 99 99 NNW 5 7 30.15 1021 10 16.09344 0 0
3:15 am 03:15 Clear 61 16.2 60 15.7 97 97 NNE 5 7 30.15 1021 10 16.09344 0 0
3:35 am 03:35 Clear 60 15.5 60 15.3 99 99 Calm 30.12 1020 10 16.09344 0 0
3:55 am 03:55 Clear 60 15.8 60 15.3 97 97 ENE 5 7 30.12 1020 10 16.09344 0 0
4:15 am 04:15 Clear 60 15.5 59 14.9 96 96 E 6 9 30.12 1020 10 16.09344 0 0
4:35 am 04:35 Clear 59 15 58 14.6 97 97 NNE 3 6 30.12 1020 10 16.09344 0 0
4:55 am 04:55 Clear 58 14.4 58 14.4 100 100 N 5 7 30.15 1021 10 16.09344 0 0
5:15 am 05:15 Partly Cloudy 58 14.3 58 14.3 100 100 N 3 6 30.18 1022 10 16.09344 0 0
5:35 am 05:35 Partly Cloudy 58 14.3 58 14.3 100 100 Calm 30.18 1022 10 16.09344 0 0
5:55 am 05:55 Clear 58 14.2 58 14.2 100 100 Calm 30.18 1022 10 16.09344 0 0
6:15 am 06:15 Clear 57 13.8 57 13.8 100 100 NNW 3 6 30.18 1022 10 16.09344 0 0
6:35 am 06:35 Clear 57 13.7 56 13.5 99 99 Calm 30.18 1022 10 16.09344 0 0
6:55 am 06:55 Sunny 56 13.5 56 13.5 100 100 Calm 30.18 1022 10 16.09344 0 0
7:15 am 07:15 Sunny 56 13.5 56 13.5 100 100 Calm 30.18 1022 10 16.09344 0 0
7:35 am 07:35 Sunny 58 14.2 57 13.9 98 98 NNE 3 6 30.18 1022 10 16.09344 0 0
7:55 am 07:55 Sunny 58 14.7 57 13.9 95 95 Calm 30.21 1023 10 16.09344 0 0
8:15 am 08:15 Sunny 59 15.2 57 14 93 93 ENE 5 7 30.21 1023 10 16.09344 0 0
8:35 am 08:35 Sunny 60 15.7 57 14.1 90 90 ENE 6 9 30.18 1022 10 16.09344 0 0
8:55 am 08:55 Sunny 61 16 58 14.3 90 90 NNE 5 7 30.18 1022 10 16.09344 0 0
9:15 am 09:15 Sunny 62 16.7 58 14.3 86 86 ENE 7 11 30.18 1022 10 16.09344 0 0
9:35 am 09:35 Sunny 63 17.3 57 14.1 82 82 NE 6 9 30.18 1022 10 16.09344 0 0
9:55 am 09:55 Sunny 65 18.1 58 14.4 79 79 E 7 11 30.18 1022 10 16.09344 0 0
10:15 am 10:15 Sunny 65 18.6 58 14.4 77 77 ENE 6 9 30.15 1021 10 16.09344 0 0
10:35 am 10:35 Sunny 66 19.1 58 14.3 74 74 ENE 7 11 30.15 1021 10 16.09344 0 0
10:55 am 10:55 Sunny 67 19.7 58 14.3 71 71 ENE 5 7 30.15 1021 10 16.09344 0 0
11:15 am 11:15 Sunny 69 20.3 58 14.6 70 70 NNE 3 6 30.15 1021 10 16.09344 0 0
11:35 am 11:35 Sunny 69 20.5 58 14.3 68 68 Calm 30.15 1021 10 16.09344 0 0
11:55 am 11:55 Sunny 71 21.6 60 15.5 68 68 NNE 7 11 30.15 1021 10 16.09344 0 0
12:15 pm 12:15 Sunny 71 21.6 59 15.2 67 67 NE 7 11 30.15 1021 10 16.09344 0 0
12:35 pm 12:35 Sunny 72 22 60 15.8 68 68 NE 7 11 30.15 1021 10 16.09344 0 0
12:55 pm 12:55 Sunny 73 22.6 60 15.6 65 65 NE 3 6 30.09 1019 10 16.09344 0 0
1:15 pm 13:15 Sunny 73 22.6 60 15.6 65 65 NNE 6 9 30.09 1019 10 16.09344 0 0
1:35 pm 13:35 Sunny 73 22.9 60 15.8 64 64 ENE 6 9 30.09 1019 10 16.09344 0 0
1:55 pm 13:55 Sunny 74 23.3 60 15.7 62 62 Calm 30.06 1018 10 16.09344 0 0
2:15 pm 14:15 Sunny with Nearby Thunderstorms 74 23.1 61 16 64 64 NNE 3 6 30.06 1018 10 16.09344 0 0
2:35 pm 14:35 Sunny 73 22.6 62 16.8 70 70 N 7 11 30.09 1019 10 16.09344 0 0
2:55 pm 14:55 Sunny 71 21.8 63 17.1 75 75 NNW 9 15 30.15 1021 10 16.09344 0 0
3:15 pm 15:15 Mostly Cloudy 69 20.7 62 16.8 78 78 E 6 9 30.09 1019 10 16.09344 0 0
3:35 pm 15:35 Mostly Cloudy with Light Rain 70 21.3 64 17.7 80 80 SE 7 11 30.03 1017 10 16.09344 0.01 0.254
3:55 pm 15:55 Partly Cloudy 70 21.1 63 17.1 78 78 ENE 8 13 30.03 1017 10 16.09344 0.01 0.254
4:15 pm 16:15 Mostly Cloudy with Light Rain 68 19.9 63 17.4 86 86 NNE 10 17 30.09 1019 10 16.09344 0 0
4:35 pm 16:35 Cloudy with Light Rain 67 19.2 63 17.3 89 89 N 7 11 30.12 1020 10 16.09344 0.01 0.254
4:55 pm 16:55 Cloudy with Light Rain 66 19.1 62 16.7 86 86 NW 6 9 30.12 1020 10 16.09344 0.01 0.254
5:15 pm 17:15 Cloudy with Light Rain 65 18.2 60 15.8 86 86 NW 13 20 30.18 1022 10 16.09344 0 0
5:35 pm 17:35 Cloudy with Thunderstorms 64 17.5 61 16.1 92 92 S 6 9 30.15 1021 7 11.265408 0.03 0.762
5:55 pm 17:55 Cloudy 63 17.3 61 15.9 92 92 SSE 14 22 30.06 1018 10 16.09344 0.07 1.778
6:15 pm 18:15 Cloudy 63 17.2 61 16 93 93 SW 9 15 30.09 1019 10 16.09344 0 0
6:35 pm 18:35 Cloudy 64 18 61 16.3 90 90 W 3 6 30.09 1019 10 16.09344 0 0
6:55 pm 18:55 Cloudy 65 18.2 61 16 87 87 SSE 3 6 30.06 1018 10 16.09344 0 0
7:15 pm 19:15 Cloudy with Light Rain 65 18.5 62 16.4 88 88 SSE 6 9 30.03 1017 10 16.09344 0 0
7:35 pm 19:35 Mostly Cloudy 66 19 62 16.6 86 86 Calm 30.03 1017 10 16.09344 0 0
7:55 pm 19:55 Mostly Cloudy 65 18.6 62 16.6 88 88 SSE 3 6 30.03 1017 10 16.09344 0 0
8:15 pm 20:15 Mostly Cloudy 65 18.5 63 17 91 91 S 5 7 30.03 1017 10 16.09344 0 0
8:35 pm 20:35 Cloudy 65 18.5 62 16.6 89 89 ESE 5 7 30.03 1017 10 16.09344 0 0
8:55 pm 20:55 Mostly Cloudy 64 17.6 63 17 96 96 NNE 6 9 30.03 1017 10 16.09344 0 0
9:15 pm 21:15 Partly Cloudy 63 17.1 62 16.5 96 96 NNE 10 17 30.09 1019 10 16.09344 0 0
9:35 pm 21:35 Clear 62 16.5 61 16.1 98 98 NE 6 9 30.09 1019 10 16.09344 0 0
9:55 pm 21:55 Clear 61 16 60 15.5 97 97 NNE 6 9 30.09 1019 10 16.09344 0 0
10:15 pm 22:15 Clear 60 15.7 59 15.1 96 96 Calm 30.12 1020 10 16.09344 0 0
10:35 pm 22:35 Partly Cloudy 60 15.5 59 15 97 97 Calm 30.12 1020 10 16.09344 0 0
10:55 pm 22:55 Partly Cloudy 60 15.5 58 14.7 95 95 Calm 30.12 1020 10 16.09344 0 0
11:15 pm 23:15 Partly Cloudy 59 14.9 58 14.4 97 97 NE 3 6 30.12 1020 10 16.09344 0 0
11:35 pm 23:35 Clear 58 14.7 58 14.2 97 97 Calm 30.12 1020 10 16.09344 0 0
11:55 pm 23:55 Clear 59 14.9 58 14.2 96 96 Calm 30.12 1020 10 16.09344 0 0

Powered by AerisWeather